{"data":{"norad_id":69151,"intl_designator":"2026-111D","name":"STARLINK-37297","alt_names":[],"object_type":"PAYLOAD","status":"ACTIVE","operator":null,"country":"US","launch_date":"2026-05-21","launch_site_code":"AFETR","launch_vehicle":null,"mission":null,"orbit_class":"UNKNOWN","rcs_meters":null,"size_class":null,"mass_kg":null,"dimensions":null,"purposes":["comms"],"wikipedia_slug":null,"has_3d_model":false,"image_url":null,"decayed_at":null,"tle_current":{"epoch":"2026-09-20T00:51:48.755808Z","epoch_age_seconds":63184,"freshness":"FRESH","line1":"1 69151U 26111D   26263.03598097  .00012012  00000+0  36652-3 0  9993","line2":"2 69151  53.1579  68.1800 0003999  18.2565 341.8581 15.34359487 18822","mean_motion":15.34359487,"eccentricity":0.0003999,"inclination_deg":53.1579,"raan_deg":68.18,"arg_perigee_deg":18.2565,"mean_anomaly_deg":341.8581,"bstar":0.00036652,"rev_number":1882,"period_min":93.8502360236,"perigee_km":460.08795586395,"apogee_km":465.55935619665,"semimajor_km":6840.9606560303,"source":"CELESTRAK","updated_at":"2026-09-20T09:00:44.089811Z"}}}